The Villages, FL

12:08 PM EDT on July 24, 2017 (GMT -0400)
The Villages

Weather History for KVVG - January, 2013

Change the Weather History Date:

Monday, January 7, 2013

  Actual Average (KLEE) Record (KLEE)
Temperature  
Mean Temperature 58 °F -  
Max Temperature 66 °F 70 °F 82 °F (2007)
Min Temperature 51 °F 48 °F 32 °F (1980)
Degree Days  
Heating Degree Days 6    
Growing Degree Days 8 (Base 50)    
Moisture  
Dew Point 52 °F    
Average Humidity 76    
Maximum Humidity 100    
Minimum Humidity 63    
Precipitation  
Precipitation 0.00 in - - ()
Sea Level Pressure  
Sea Level Pressure 30.21 in    
Wind  
Wind Speed 7 mph (NNE)    
Max Wind Speed 14 mph    
Max Gust Speed 18 mph    
Visibility 10 miles    
Events Rain    
Averages and records for this station are not official NWS values.
T = Trace of Precipitation, MM = Missing Value Source: NWS Daily Summary

Daily Weather History Graph

Daily Weather History Graph

Search for Another Location

Airport or City:

Trip Planner

Search our weather history database for the weather conditions in past years. The results will help you decide how hot, cold, wet, or windy it might be!

Date:

Astronomy

Jan. 07, 2013 Rise Set
Actual Time 7:22 AM EST 5:45 PM EST
Civil Twilight 6:56 AM EST 6:11 PM EST
Nautical Twilight 6:26 AM EST 6:40 PM EST
Astronomical Twilight 5:58 AM EST 7:09 PM EST
Moon 2:49 AM EST (1/7) 1:51 PM EST (1/7)
Length of Visible Light 11h 15m
Length of Day
10h 23m
Waning Crescent, 23% of the Moon is Illuminated
Jan 7
Waning Crescent
Jan 11
New
Jan 18
First Quarter
Jan 26
Full
Feb 3
Last Quarter

Hourly Weather History & Observations

Time (EST) Temp. Dew Point Humidity Pressure Visibility Wind Dir Wind Speed Gust Speed Precip Events Conditions
12:15 AM 59.0 °F 57.2 °F 94% 30.17 in 7.0 mi NNE 5.8 mph - N/A   Unknown
12:35 AM 59.0 °F 57.2 °F 94% 30.17 in 8.0 mi NNE 4.6 mph - N/A   Unknown
12:55 AM 59.0 °F 57.2 °F 94% 30.18 in 6.0 mi Calm Calm - N/A   Light Drizzle
1:15 AM 59.0 °F 57.2 °F 94% 30.17 in 5.0 mi North 5.8 mph - N/A   Light Drizzle
1:55 AM 57.2 °F 57.2 °F 100% 30.16 in 10.0 mi NNE 5.8 mph - N/A   Unknown
2:35 AM 57.2 °F 57.2 °F 100% 30.17 in 10.0 mi North 6.9 mph - N/A   Unknown
2:55 AM 57.2 °F 55.4 °F 94% 30.16 in 10.0 mi NNE 4.6 mph - N/A   Unknown
3:35 AM 57.2 °F 55.4 °F 94% 30.17 in 10.0 mi North 8.1 mph - N/A   Unknown
3:55 AM 57.2 °F 53.6 °F 88% 30.17 in 10.0 mi North 11.5 mph - N/A   Unknown
4:15 AM 55.4 °F 53.6 °F 94% 30.17 in 10.0 mi North 6.9 mph - N/A   Unknown
4:35 AM 55.4 °F 51.8 °F 88% 30.18 in 10.0 mi North 6.9 mph - N/A   Unknown
4:55 AM 55.4 °F 50.0 °F 82% 30.18 in 10.0 mi North 6.9 mph - N/A   Unknown
5:15 AM 53.6 °F 48.2 °F 82% 30.19 in 10.0 mi North 8.1 mph - N/A   Unknown
5:35 AM 53.6 °F 46.4 °F 77% 30.19 in 10.0 mi North 6.9 mph - N/A   Unknown
5:55 AM 53.6 °F 46.4 °F 77% 30.20 in 10.0 mi North 9.2 mph - N/A   Unknown
6:15 AM 53.6 °F 46.4 °F 77% 30.21 in 10.0 mi NNE 9.2 mph - N/A   Unknown
6:35 AM 53.6 °F 46.4 °F 77% 30.21 in 10.0 mi NNE 8.1 mph - N/A   Unknown
6:55 AM 53.6 °F 46.4 °F 77% 30.22 in 10.0 mi NNE 6.9 mph - N/A   Unknown
7:15 AM 53.6 °F 46.4 °F 77% 30.22 in 10.0 mi North 6.9 mph - N/A   Unknown
7:35 AM 53.6 °F 46.4 °F 77% 30.23 in 10.0 mi NNE 6.9 mph - N/A   Unknown
7:55 AM 53.6 °F 46.4 °F 77% 30.24 in 10.0 mi NNE 6.9 mph - N/A   Unknown
8:15 AM 51.8 °F 46.4 °F 82% 30.25 in 10.0 mi NNE 6.9 mph - N/A   Unknown
8:35 AM 53.6 °F 46.4 °F 77% 30.25 in 10.0 mi NE 9.2 mph - N/A   Unknown
8:55 AM 53.6 °F 46.4 °F 77% 30.25 in 10.0 mi NE 8.1 mph - N/A   Unknown
9:15 AM 53.6 °F 46.4 °F 77% 30.25 in 10.0 mi NE 8.1 mph - N/A   Unknown
9:35 AM 55.4 °F 46.4 °F 72% 30.26 in 10.0 mi ENE 6.9 mph - N/A   Unknown
9:55 AM 55.4 °F 46.4 °F 72% 30.26 in 10.0 mi NE 8.1 mph - N/A   Unknown
10:15 AM 57.2 °F 48.2 °F 72% 30.27 in 10.0 mi North 8.1 mph - N/A   Unknown
10:35 AM 57.2 °F 48.2 °F 72% 30.26 in 10.0 mi NNE 10.4 mph - N/A   Unknown
10:55 AM 57.2 °F 48.2 °F 72% 30.26 in 10.0 mi NNE 8.1 mph - N/A   Unknown
11:15 AM 57.2 °F 48.2 °F 72% 30.24 in 10.0 mi NNE 10.4 mph - N/A   Unknown
11:35 AM 60.8 °F 48.2 °F 63% 30.24 in 10.0 mi NE 11.5 mph - N/A   Unknown
11:55 AM 60.8 °F 48.2 °F 63% 30.23 in 9.0 mi NNE 11.5 mph - N/A   Unknown
12:15 PM 62.6 °F 50.0 °F 63% 30.22 in 9.0 mi NNE 9.2 mph - N/A   Unknown
12:35 PM 62.6 °F 50.0 °F 63% 30.21 in 10.0 mi NNE 9.2 mph - N/A   Unknown
12:55 PM 64.4 °F 51.8 °F 64% 30.20 in 9.0 mi NE 13.8 mph - N/A   Unknown
1:15 PM 64.4 °F 51.8 °F 64% 30.20 in 10.0 mi NE 11.5 mph - N/A   Unknown
1:55 PM 64.4 °F 51.8 °F 64% 30.19 in 9.0 mi ENE 5.8 mph - N/A   Unknown
2:15 PM 66.2 °F 53.6 °F 64% 30.18 in 10.0 mi NNE 9.2 mph - N/A   Unknown
2:35 PM 66.2 °F 53.6 °F 64% 30.18 in 9.0 mi NE 9.2 mph 16.1 mph N/A   Unknown
2:55 PM 66.2 °F 53.6 °F 64% 30.19 in 10.0 mi NE 10.4 mph - N/A   Unknown
3:15 PM 66.2 °F 53.6 °F 64% 30.19 in 10.0 mi NE 8.1 mph - N/A   Unknown
3:55 PM 66.2 °F 53.6 °F 64% 30.19 in 10.0 mi NE 9.2 mph 18.4 mph N/A   Unknown
4:35 PM 64.4 °F 53.6 °F 68% 30.20 in 10.0 mi NE 8.1 mph - N/A   Unknown
4:55 PM 64.4 °F 53.6 °F 68% 30.21 in 10.0 mi ENE 8.1 mph - N/A   Unknown
5:15 PM 64.4 °F 53.6 °F 68% 30.21 in 10.0 mi NE 8.1 mph - N/A   Unknown
5:35 PM 64.4 °F 53.6 °F 68% 30.21 in 10.0 mi NE 4.6 mph - N/A   Unknown
5:55 PM 64.4 °F 53.6 °F 68% 30.21 in 10.0 mi NE 6.9 mph - N/A   Unknown
6:15 PM 64.4 °F 53.6 °F 68% 30.21 in 10.0 mi NE 8.1 mph - N/A   Unknown
6:55 PM 64.4 °F 53.6 °F 68% 30.22 in 10.0 mi NNE 6.9 mph - N/A   Unknown
7:15 PM 64.4 °F 53.6 °F 68% 30.23 in 10.0 mi NE 6.9 mph - N/A   Unknown
7:35 PM 62.6 °F 53.6 °F 72% 30.23 in 10.0 mi NNE 5.8 mph - N/A   Unknown
7:55 PM 62.6 °F 53.6 °F 72% 30.23 in 10.0 mi NNE 4.6 mph - N/A   Unknown
8:15 PM 62.6 °F 53.6 °F 72% 30.23 in 10.0 mi NNE 5.8 mph - N/A   Unknown
8:55 PM 62.6 °F 53.6 °F 72% 30.22 in 10.0 mi NE 5.8 mph - N/A   Unknown
9:35 PM 62.6 °F 55.4 °F 77% 30.23 in 10.0 mi NNE 3.5 mph - N/A   Unknown
9:55 PM 60.8 °F 55.4 °F 82% 30.23 in 10.0 mi NNE 4.6 mph - N/A   Unknown
10:15 PM 60.8 °F 55.4 °F 82% 30.22 in 8.0 mi Calm Calm - N/A   Unknown
10:35 PM 60.8 °F 55.4 °F 82% 30.22 in 9.0 mi North 5.8 mph - N/A   Light Drizzle
11:15 PM 59.0 °F 55.4 °F 88% 30.21 in 3.0 mi North 5.8 mph - N/A Rain Light Rain
11:35 PM 57.2 °F 55.4 °F 94% 30.21 in 8.0 mi NNE 3.5 mph - N/A   Unknown